User: anonymous   Login
Location: Unspecified
(0.0000°N, 0.0000°E)
Time: 09:13:41
(UTC+00:00)
Language:

ISS - Orbit

View from above orbital plane
View from above orbital plane
View from above satellite
View from above satellite

Ground track
Ground track

The orbit is defined by the following mean orbital elements,

1 25544U          26151.16242250 +.00000000 +00000-0 +23226-3 0 00008
2 25544  51.6337  24.3812 0007232 116.8819 243.2910 15.49515140    01
Epoch (UTC): 31 May 2026 03:53:53
Eccentricity: 0.0007232
inclination: 51.6337°
perigee height: 413 km
apogee height: 423 km
right ascension of ascending node: 24.3812°
argument of perigee: 116.8819°
revolutions per day: 15.49515140
mean anomaly at epoch: 243.2910°

The dashed part of the orbit path shows where the satellite is in the earth's shadow,  

DLR